| time (UTC) | temp F | wind direction | speed MPH | gust MPH | rain 1hr in | rain 24hr in | rain mn in | humidity % | barometer mb |
| 20260507201312 | 60 | 270 | 2.0 | 9.0 | 0.00 | 0.00 | 0.61 | 63 | 1005.6 |
| 20260507200802 | 60 | 293 | 2.0 | 11.0 | 0.00 | 0.00 | 0.61 | 63 | 1005.6 |
| 20260507200252 | 60 | 180 | 4.0 | 11.0 | 0.00 | 0.00 | 0.61 | 62 | 1005.7 |
| 20260507195737 | 60 | 225 | 3.0 | 11.0 | 0.00 | 0.00 | 0.61 | 61 | 1005.6 |
| 20260507195236 | 60 | 180 | 2.0 | 11.0 | 0.00 | 0.00 | 0.61 | 63 | 1005.6 |
| 20260507193701 | 60 | 270 | 6.0 | 14.0 | 0.00 | 0.00 | 0.61 | 61 | 1005.3 |
| 20260507193155 | 60 | 225 | 7.0 | 14.0 | 0.00 | 0.00 | 0.61 | 60 | 1005.0 |
| 20260507192643 | 61 | 270 | 4.0 | 16.0 | 0.00 | 0.00 | 0.61 | 60 | 1005.1 |
| 20260507192131 | 61 | 248 | 4.0 | 17.0 | 0.00 | 0.00 | 0.61 | 59 | 1004.6 |
| 20260507191616 | 62 | 225 | 8.0 | 17.0 | 0.00 | 0.00 | 0.61 | 59 | 1004.5 |
| 20260507191105 | 61 | 225 | 6.0 | 18.0 | 0.00 | 0.00 | 0.61 | 59 | 1004.4 |
| 20260507190601 | 61 | 248 | 14.0 | 18.0 | 0.00 | 0.00 | 0.61 | 57 | 1004.1 |
| 20260507190050 | 61 | 293 | 6.0 | 17.0 | 0.00 | 0.00 | 0.61 | 59 | 1003.6 |
| 20260507185026 | 61 | 225 | 7.0 | 16.0 | 0.00 | 0.00 | 0.61 | 58 | 1003.9 |
| 20260507184518 | 62 | 135 | 8.0 | 16.0 | 0.00 | 0.00 | 0.61 | 59 | 1003.5 |
| 20260507184009 | 62 | 248 | 5.0 | 14.0 | 0.00 | 0.00 | 0.61 | 60 | 1003.1 |
| 20260507182950 | 62 | 270 | 7.0 | 14.0 | 0.00 | 0.00 | 0.61 | 57 | 1004.1 |
| 20260507182435 | 61 | 248 | 5.0 | 16.0 | 0.00 | 0.00 | 0.61 | 59 | 1004.3 |
| 20260507181924 | 61 | 315 | 5.0 | 16.0 | 0.00 | 0.00 | 0.61 | 60 | 1004.2 |
| 20260507181416 | 61 | 270 | 3.0 | 8.0 | 0.00 | 0.00 | 0.61 | 61 | 1004.5 |
| 20260507180908 | 62 | 293 | 3.0 | 9.0 | 0.00 | 0.00 | 0.61 | 60 | 1004.6 |
| 20260507180400 | 61 | 248 | 4.0 | 9.0 | 0.00 | 0.00 | 0.61 | 63 | 1004.8 |
| 20260507175336 | 59 | 225 | 1.0 | 4.0 | 0.00 | 0.00 | 0.61 | 65 | 1005.2 |
| 20260507174823 | 59 | 248 | 0.0 | 11.0 | 0.00 | 0.00 | 0.61 | 64 | 1005.6 |
| 20260507173809 | 58 | 225 | 1.0 | 6.0 | 0.00 | 0.00 | 0.61 | 66 | 1005.8 |
| 20260507173256 | 58 | 248 | 1.0 | 14.0 | 0.00 | 0.00 | 0.61 | 65 | 1006.0 |
| 20260507172748 | 58 | 293 | 4.0 | 14.0 | 0.00 | 0.00 | 0.61 | 65 | 1006.2 |
| 20260507172237 | 58 | 270 | 1.0 | 14.0 | 0.00 | 0.00 | 0.61 | 66 | 1006.4 |
| 20260507171725 | 58 | 293 | 5.0 | 17.0 | 0.00 | 0.00 | 0.61 | 65 | 1006.6 |
| 20260507171215 | 58 | 270 | 3.0 | 17.0 | 0.00 | 0.00 | 0.61 | 66 | 1006.6 |
| 20260507170704 | 58 | 293 | 2.0 | 16.0 | 0.00 | 0.00 | 0.61 | 67 | 1007.0 |
| 20260507170157 | 58 | 270 | 6.0 | 18.0 | 0.00 | 0.00 | 0.61 | 67 | 1007.1 |
| 20260507165137 | 58 | 293 | 9.0 | 17.0 | 0.00 | 0.00 | 0.61 | 68 | 1007.2 |
| 20260507164627 | 58 | 293 | 10.0 | 17.0 | 0.00 | 0.00 | 0.61 | 67 | 1006.8 |
| 20260507163059 | 58 | 248 | 4.0 | 21.0 | 0.00 | 0.00 | 0.61 | 68 | 1006.5 |
| 20260507162547 | 58 | 270 | 9.0 | 21.0 | 0.00 | 0.00 | 0.61 | 68 | 1006.6 |
| 20260507162031 | 58 | 270 | 9.0 | 20.0 | 0.00 | 0.00 | 0.61 | 69 | 1006.5 |
| 20260507161526 | 58 | 270 | 3.0 | 15.0 | 0.00 | 0.00 | 0.61 | 70 | 1006.1 |
| 20260507161019 | 57 | 248 | 4.0 | 15.0 | 0.00 | 0.00 | 0.61 | 69 | 1006.1 |
| 20260507160506 | 58 | 270 | 2.0 | 15.0 | 0.00 | 0.00 | 0.61 | 70 | 1005.9 |
| 20260507155952 | 58 | 180 | 3.0 | 8.0 | 0.00 | 0.00 | 0.61 | 70 | 1005.7 |
| 20260507151551 | 56 | 293 | 0.0 | 0.0 | 0.00 | 0.00 | 0.61 | 76 | 1007.5 |
| 20260507151038 | 56 | 293 | 0.0 | 7.0 | 0.00 | 0.00 | 0.61 | 75 | 1007.6 |
| 20260507145505 | 57 | 270 | 1.0 | 9.0 | 0.00 | 0.00 | 0.61 | 72 | 1008.3 |
| 20260507144958 | 57 | 270 | 0.0 | 9.0 | 0.00 | 0.00 | 0.61 | 70 | 1007.9 |
| 20260507144454 | 57 | 225 | 1.0 | 9.0 | 0.00 | 0.00 | 0.61 | 72 | 1007.4 |
| 20260507143427 | 57 | 113 | 0.0 | 4.0 | 0.00 | 0.00 | 0.61 | 74 | 1006.6 |
| 20260507142920 | 57 | 270 | 1.0 | 4.0 | 0.00 | 0.00 | 0.61 | 74 | 1006.9 |
| 20260507142413 | 57 | 248 | 0.0 | 4.0 | 0.00 | 0.00 | 0.61 | 75 | 1006.5 |
| 20260507141859 | 57 | 248 | 0.0 | 4.0 | 0.00 | 0.00 | 0.61 | 74 | 1006.5 |
| 20260507141349 | 57 | 203 | 0.0 | 8.0 | 0.00 | 0.00 | 0.61 | 73 | 1006.5 |
| 20260507140844 | 57 | 248 | 1.0 | 8.0 | 0.00 | 0.00 | 0.61 | 73 | 1006.8 |
| 20260507140330 | 58 | 248 | 0.0 | 6.0 | 0.00 | 0.00 | 0.61 | 75 | 1006.9 |
| 20260507135815 | 58 | 225 | 0.0 | 6.0 | 0.00 | 0.00 | 0.61 | 75 | 1006.3 |
| 20260507135310 | 57 | 338 | 2.0 | 6.0 | 0.00 | 0.00 | 0.61 | 74 | 1006.1 |
| 20260507134801 | 57 | 293 | 0.0 | 4.0 | 0.00 | 0.00 | 0.61 | 76 | 1006.3 |
| 20260507134247 | 57 | 158 | 0.0 | 4.0 | 0.00 | 0.00 | 0.61 | 76 | 1005.8 |
| 20260507133738 | 57 | 338 | 0.0 | 2.0 | 0.00 | 0.00 | 0.61 | 76 | 1005.9 |
| 20260507132716 | 57 | 158 | 0.0 | 4.0 | 0.00 | 0.00 | 0.61 | 75 | 1006.0 |
| 20260507131143 | 57 | 248 | 0.0 | 6.0 | 0.00 | 0.00 | 0.61 | 76 | 1006.6 |
| 20260507130636 | 57 | 248 | 1.0 | 6.0 | 0.00 | 0.00 | 0.61 | 75 | 1006.8 |
| 20260507130128 | 58 | 270 | 0.0 | 4.0 | 0.00 | 0.00 | 0.61 | 75 | 1006.8 |
| 20260507125615 | 58 | 203 | 0.0 | 6.0 | 0.00 | 0.00 | 0.61 | 75 | 1007.0 |
| 20260507125108 | 58 | 158 | 0.0 | 6.0 | 0.00 | 0.00 | 0.61 | 76 | 1007.1 |
| 20260507124558 | 58 | 180 | 1.0 | 4.0 | 0.00 | 0.00 | 0.61 | 76 | 1006.7 |
| 20260507124043 | 58 | 203 | 0.0 | 0.0 | 0.00 | 0.00 | 0.61 | 78 | 1006.0 |
| 20260507123540 | 58 | 270 | 0.0 | 2.0 | 0.00 | 0.00 | 0.61 | 79 | 1006.2 |
| 20260507123027 | 58 | 203 | 0.0 | 2.0 | 0.00 | 0.00 | 0.61 | 80 | 1005.8 |
| 20260507122518 | 58 | 113 | 0.0 | 2.0 | 0.00 | 0.00 | 0.61 | 79 | 1005.9 |
| 20260507122002 | 58 | 248 | 0.0 | 7.0 | 0.00 | 0.00 | 0.61 | 78 | 1005.7 |
| 20260507121457 | 58 | 225 | 0.0 | 7.0 | 0.00 | 0.00 | 0.61 | 79 | 1005.3 |
| 20260507120944 | 58 | 225 | 0.0 | 8.0 | 0.00 | 0.00 | 0.61 | 79 | 1004.9 |
| 20260507120437 | 58 | 180 | 1.0 | 11.0 | 0.00 | 0.00 | 0.61 | 78 | 1004.6 |
| 20260507115927 | 58 | 180 | 2.0 | 11.0 | 0.00 | 0.00 | 0.61 | 77 | 1004.3 |
| 20260507114906 | 58 | 158 | 1.0 | 11.0 | 0.00 | 0.00 | 0.61 | 77 | 1005.5 |
| 20260507113846 | 58 | 135 | 2.0 | 7.0 | 0.00 | 0.00 | 0.61 | 78 | 1004.5 |
| 20260507113336 | 58 | 135 | 1.0 | 11.0 | 0.00 | 0.00 | 0.61 | 78 | 1004.3 |
| 20260507112825 | 59 | 203 | 1.0 | 11.0 | 0.00 | 0.00 | 0.61 | 78 | 1004.1 |
| 20260507112315 | 59 | 225 | 2.0 | 11.0 | 0.00 | 0.00 | 0.61 | 76 | 1004.2 |
| 20260507111805 | 59 | 225 | 4.0 | 11.0 | 0.00 | 0.00 | 0.61 | 77 | 1003.9 |
| 20260507111252 | 59 | 180 | 2.0 | 16.0 | 0.00 | 0.00 | 0.61 | 76 | 1003.9 |
| 20260507110746 | 59 | 203 | 8.0 | 18.0 | 0.00 | 0.00 | 0.61 | 75 | 1003.1 |
| 20260507105211 | 60 | 203 | 8.0 | 14.0 | 0.00 | 0.00 | 0.61 | 77 | 1001.7 |
| 20260507034953 | 68 | 248 | 2.0 | 8.0 | 0.53 | 0.53 | 0.53 | 93 | 999.7 |
| 20260507034506 | 69 | 270 | 0.0 | 8.0 | 0.47 | 0.47 | 0.47 | 93 | 999.4 |
| 20260507033938 | 64 | 225 | 0.0 | 17.0 | 0.40 | 0.40 | 0.40 | 92 | 999.8 |
| 20260507033424 | 65 | 203 | 7.0 | 17.0 | 0.13 | 0.13 | 0.13 | 90 | 1000.7 |
| 20260507032919 | 73 | 180 | 0.0 | 4.0 | 0.04 | 0.04 | 0.04 | 91 | 1000.9 |
| 20260507032408 | 74 | 315 | 0.0 | 4.0 | 0.01 | 0.01 | 0.01 | 90 | 999.9 |
| 20260507031900 | 74 | 338 | 0.0 | 2.0 | 0.00 | 0.00 | 0.00 | 91 | 999.7 |
| 20260507031349 | 73 | 23 | 0.0 | 0.0 | 0.00 | 0.00 | 0.00 | 90 | 999.7 |
| 20260507030840 | 73 | 45 | 0.0 | 0.0 | 0.00 | 0.00 | 0.00 | 90 | 999.6 |
| 20260507030332 | 73 | 45 | 0.0 | 0.0 | 0.00 | 0.00 | 0.00 | 90 | 999.8 |
| 20260507025819 | 73 | 23 | 0.0 | 0.0 | 0.00 | 0.00 | 0.00 | 90 | 1000.1 |
| 20260507025312 | 74 | 90 | 0.0 | 0.0 | 0.00 | 0.00 | 0.00 | 90 | 1000.3 |
| 20260507024759 | 74 | 23 | 0.0 | 0.0 | 0.00 | 0.00 | 0.00 | 90 | 1000.8 |
| 20260507024251 | 74 | 23 | 0.0 | 0.0 | 0.00 | 0.00 | 0.00 | 89 | 1000.4 |
| 20260507023741 | 74 | 23 | 0.0 | 0.0 | 0.00 | 0.00 | 0.00 | 89 | 1000.3 |
| 20260507023229 | 75 | 23 | 0.0 | 0.0 | 0.00 | 0.00 | 0.00 | 88 | 1000.7 |
| 20260507022724 | 75 | 293 | 0.0 | 2.0 | 0.00 | 0.00 | 0.00 | 87 | 1001.1 |
| 20260507022206 | 75 | 270 | 0.0 | 2.0 | 0.00 | 0.00 | 0.00 | 87 | 1001.9 |
| 20260507021658 | 75 | 293 | 0.0 | 2.0 | 0.00 | 0.00 | 0.00 | 87 | 1001.6 |
| 20260507021148 | 75 | 315 | 0.0 | 0.0 | 0.00 | 0.00 | 0.00 | 87 | 1001.8 |
| 20260507020641 | 75 | 315 | 0.0 | 0.0 | 0.00 | 0.00 | 0.00 | 88 | 1001.5 |
| 20260507020132 | 75 | 293 | 0.0 | 0.0 | 0.00 | 0.00 | 0.00 | 88 | 1001.6 |
| 20260507015618 | 75 | 315 | 0.0 | 0.0 | 0.00 | 0.00 | 0.00 | 88 | 1001.8 |
| 20260507015111 | 75 | 338 | 0.0 | 0.0 | 0.00 | 0.00 | 0.00 | 87 | 1001.8 |
| 20260507014600 | 75 | 23 | 0.0 | 0.0 | 0.00 | 0.00 | 0.00 | 87 | 1001.6 |
| 20260507014050 | 75 | 338 | 0.0 | 0.0 | 0.00 | 0.00 | 0.00 | 87 | 1002.2 |
| 20260507013537 | 76 | 338 | 0.0 | 0.0 | 0.00 | 0.00 | 0.00 | 87 | 1001.9 |
| 20260507012520 | 75 | 0 | 0.0 | 0.0 | 0.00 | 0.00 | 0.00 | 87 | 1001.5 |
| 20260507011459 | 76 | 0 | 0.0 | 0.0 | 0.00 | 0.00 | 0.00 | 86 | 1001.8 |
| 20260507010951 | 76 | 0 | 0.0 | 0.0 | 0.00 | 0.00 | 0.00 | 85 | 1001.9 |
| 20260507010440 | 77 | 23 | 0.0 | 2.0 | 0.00 | 0.00 | 0.00 | 84 | 1001.9 |
| 20260507005929 | 77 | 23 | 0.0 | 2.0 | 0.00 | 0.00 | 0.00 | 85 | 1002.1 |
| 20260507004909 | 76 | 45 | 0.0 | 0.0 | 0.00 | 0.00 | 0.00 | 86 | 1002.2 |
| 20260507004400 | 76 | 68 | 0.0 | 2.0 | 0.00 | 0.00 | 0.00 | 86 | 1002.3 |
| 20260507003336 | 76 | 45 | 0.0 | 4.0 | 0.00 | 0.00 | 0.00 | 85 | 1002.4 |
| 20260507002828 | 76 | 45 | 0.0 | 4.0 | 0.00 | 0.00 | 0.00 | 85 | 1002.3 |
| 20260507002318 | 76 | 45 | 0.0 | 0.0 | 0.00 | 0.00 | 0.00 | 85 | 1002.6 |
| 20260507001809 | 76 | 45 | 0.0 | 0.0 | 0.00 | 0.00 | 0.00 | 85 | 1002.6 |
| 20260507001258 | 76 | 180 | 0.0 | 0.0 | 0.00 | 0.00 | 0.00 | 86 | 1002.9 |
| 20260507000748 | 76 | 203 | 0.0 | 0.0 | 0.00 | 0.00 | 0.00 | 86 | 1002.9 |
| 20260507000238 | 76 | 180 | 0.0 | 0.0 | 0.00 | 0.00 | 0.00 | 86 | 1003.0 |
| 20260506235728 | 76 | 203 | 0.0 | 0.0 | 0.00 | 0.00 | 0.00 | 85 | 1002.7 |
| 20260506235218 | 76 | 225 | 0.0 | 0.0 | 0.00 | 0.00 | 0.00 | 85 | 1002.5 |
| 20260506233645 | 77 | 293 | 0.0 | 0.0 | 0.00 | 0.00 | 0.00 | 83 | 1002.1 |
| 20260506233135 | 78 | 293 | 0.0 | 0.0 | 0.00 | 0.00 | 0.00 | 82 | 1002.3 |
| 20260506232627 | 78 | 23 | 0.0 | 0.0 | 0.00 | 0.00 | 0.00 | 82 | 1002.1 |
| 20260506231057 | 78 | 23 | 0.0 | 2.0 | 0.00 | 0.00 | 0.00 | 82 | 1001.7 |
| 20260506230548 | 78 | 23 | 0.0 | 0.0 | 0.00 | 0.00 | 0.00 | 82 | 1001.8 |
| 20260506230042 | 78 | 23 | 0.0 | 0.0 | 0.00 | 0.00 | 0.00 | 81 | 1001.5 |
| 20260506225528 | 78 | 23 | 0.0 | 4.0 | 0.00 | 0.00 | 0.00 | 81 | 1001.8 |
| 20260506225020 | 78 | 23 | 0.0 | 4.0 | 0.00 | 0.00 | 0.00 | 81 | 1001.7 |
| 20260506224511 | 78 | 45 | 0.0 | 4.0 | 0.00 | 0.00 | 0.00 | 80 | 1001.5 |
| 20260506224001 | 79 | 23 | 1.0 | 7.0 | 0.00 | 0.00 | 0.00 | 80 | 1001.8 |
| 20260506223450 | 79 | 23 | 1.0 | 7.0 | 0.00 | 0.00 | 0.00 | 80 | 1001.7 |
| 20260506222940 | 79 | 45 | 0.0 | 4.0 | 0.00 | 0.00 | 0.00 | 79 | 1001.4 |
| 20260506222427 | 79 | 0 | 0.0 | 4.0 | 0.00 | 0.00 | 0.00 | 78 | 1001.6 |
| 20260506221919 | 80 | 23 | 1.0 | 6.0 | 0.00 | 0.00 | 0.00 | 78 | 1001.5 |
| 20260506221410 | 80 | 338 | 1.0 | 8.0 | 0.00 | 0.00 | 0.00 | 78 | 1001.2 |
| 20260506220350 | 80 | 23 | 4.0 | 9.0 | 0.00 | 0.00 | 0.00 | 77 | 1001.1 |
| 20260506215329 | 80 | 45 | 2.0 | 11.0 | 0.00 | 0.00 | 0.00 | 77 | 1000.9 |
| 20260506214815 | 81 | 23 | 2.0 | 13.0 | 0.00 | 0.00 | 0.00 | 76 | 1001.1 |
| 20260506214304 | 81 | 45 | 5.0 | 13.0 | 0.00 | 0.00 | 0.00 | 76 | 1001.0 |
| 20260506213756 | 81 | 23 | 2.0 | 11.0 | 0.00 | 0.00 | 0.00 | 76 | 1001.0 |
| 20260506213246 | 81 | 45 | 2.0 | 11.0 | 0.00 | 0.00 | 0.00 | 75 | 1000.8 |
| 20260506212745 | 81 | 45 | 4.0 | 11.0 | 0.00 | 0.00 | 0.00 | 75 | 1001.0 |
| 20260506211722 | 82 | 0 | 4.0 | 13.0 | 0.00 | 0.00 | 0.00 | 74 | 1001.0 |
| 20260506211208 | 82 | 0 | 2.0 | 13.0 | 0.00 | 0.00 | 0.00 | 73 | 1001.1 |
| 20260506210658 | 82 | 23 | 4.0 | 13.0 | 0.00 | 0.00 | 0.00 | 73 | 1001.2 |
| 20260506205638 | 82 | 23 | 2.0 | 11.0 | 0.00 | 0.00 | 0.00 | 73 | 1001.3 |
| 20260506205125 | 83 | 45 | 2.0 | 11.0 | 0.00 | 0.00 | 0.00 | 73 | 1001.3 |
| 20260506204618 | 83 | 45 | 2.0 | 4.0 | 0.00 | 0.00 | 0.00 | 73 | 1001.8 |
| 20260506204108 | 83 | 68 | 1.0 | 6.0 | 0.00 | 0.00 | 0.00 | 72 | 1001.7 |
| 20260506203557 | 83 | 45 | 1.0 | 6.0 | 0.00 | 0.00 | 0.00 | 72 | 1002.0 |
| 20260506203047 | 83 | 23 | 1.0 | 6.0 | 0.00 | 0.00 | 0.00 | 72 | 1002.2 |
| 20260506202536 | 83 | 23 | 2.0 | 7.0 | 0.00 | 0.00 | 0.00 | 71 | 1002.3 |